When you browse on this site, cookies collect data to enhance your experience and personalize the content and advertising you see.
Visit our Privacy Policy to learn more. By continuing to use the site, you agree to this use of cookies and data.
  • In Deutschland
  • Länderverzeichnis
  • Für 7 Tage
  • Wassertemperatur
  • Wetterkarte
  • Widgets
  • user-avatar
    Anmelden

    Stündliche Wetter Zaharovka

    Heute, 27 Februar, Donnerstag

    Zeit Temperatur Niederschläge Wind Luftdruck Luftfeuchtigkeit
    00:00 -8°C° 0.1 mm 4 m/S 716 mmHg 93%
    01:00 -7°C° 0.1 mm 5 m/S 717 mmHg 92%
    02:00 -8°C° 0 mm 5 m/S 717 mmHg 91%
    03:00 -8°C° 0 mm 5 m/S 718 mmHg 91%
    04:00 -10°C° 0 mm 5 m/S 719 mmHg 90%
    05:00 -11°C° 0 mm 5 m/S 720 mmHg 91%
    06:00 -12°C° 0 mm 5 m/S 720 mmHg 92%
    07:00 -12°C° 0 mm 4 m/S 721 mmHg 93%
    08:00 -12°C° 0 mm 4 m/S 721 mmHg 92%
    09:00 -11°C° 0 mm 4 m/S 722 mmHg 91%
    10:00 -10°C° 0 mm 4 m/S 722 mmHg 90%
    11:00 -9°C° 0 mm 4 m/S 722 mmHg 87%
    12:00 -8°C° 0 mm 4 m/S 723 mmHg 84%
    13:00 -5°C° 0 mm 4 m/S 723 mmHg 82%
    14:00 -5°C° 0 mm 4 m/S 723 mmHg 84%
    15:00 -5°C° 0 mm 4 m/S 724 mmHg 87%
    16:00 -5°C° 0 mm 4 m/S 724 mmHg 90%
    17:00 -7°C° 0 mm 4 m/S 724 mmHg 91%
    18:00 -6°C° 0 mm 3 m/S 725 mmHg 93%
    19:00 -6°C° 0 mm 2 m/S 725 mmHg 94%
    20:00 -6°C° 0 mm 2 m/S 725 mmHg 95%
    21:00 -6°C° 0 mm 2 m/S 726 mmHg 95%
    22:00 -6°C° 0 mm 2 m/S 726 mmHg 96%
    23:00 -6°C° 0.1 mm 2 m/S 726 mmHg 96%

    Morgen, 28 Februar, Freitag

    Zeit Temperatur Niederschläge Wind Luftdruck Luftfeuchtigkeit
    00:00 -3°C° 0.1 mm 1 m/S 726 mmHg 96%
    01:00 -3°C° 0.1 mm 1 m/S 726 mmHg 97%
    02:00 -4°C° 0.1 mm 2 m/S 727 mmHg 97%
    03:00 -3°C° 0.1 mm 2 m/S 727 mmHg 97%
    04:00 -2°C° 0.1 mm 2 m/S 728 mmHg 97%
    05:00 -3°C° 0.1 mm 2 m/S 727 mmHg 96%
    06:00 -3°C° 0.1 mm 2 m/S 727 mmHg 96%
    07:00 -3°C° 0.1 mm 2 m/S 727 mmHg 95%
    08:00 -3°C° 0.1 mm 2 m/S 727 mmHg 95%
    09:00 -2°C° 0.1 mm 2 m/S 727 mmHg 94%
    10:00 -2°C° 0.1 mm 2 m/S 727 mmHg 94%
    11:00 -2°C° 0.2 mm 3 m/S 727 mmHg 96%
    12:00 -1°C° 0.2 mm 3 m/S 727 mmHg 98%
    13:00 0°C° 0.2 mm 3 m/S 727 mmHg 99%
    14:00 0°C° 0.3 mm 3 m/S 728 mmHg 99%
    15:00 0°C° 0.3 mm 3 m/S 728 mmHg 99%
    16:00 0°C° 0.3 mm 3 m/S 728 mmHg 98%
    17:00 0°C° 0 mm 3 m/S 728 mmHg 98%
    18:00 0°C° 0 mm 3 m/S 729 mmHg 97%
    19:00 0°C° 0 mm 3 m/S 729 mmHg 96%
    20:00 0°C° 0 mm 3 m/S 729 mmHg 95%
    21:00 0°C° 0 mm 3 m/S 729 mmHg 95%
    22:00 -1°C° 0 mm 3 m/S 729 mmHg 94%
    23:00 -1°C° 0 mm 3 m/S 729 mmHg 94%

    übermorgen, 29 Februar, Samstag

    Zeit Temperatur Niederschläge Wind Luftdruck Luftfeuchtigkeit
    00:00 -1°C° 0 mm 3 m/S 729 mmHg 94%
    01:00 -1°C° 0 mm 3 m/S 729 mmHg 94%
    02:00 -1°C° 0.1 mm 3 m/S 729 mmHg 92%
    03:00 -1°C° 0.1 mm 2 m/S 729 mmHg 90%
    04:00 -1°C° 0.1 mm 2 m/S 728 mmHg 88%
    05:00 -2°C° 0 mm 2 m/S 728 mmHg 87%
    06:00 -2°C° 0 mm 2 m/S 727 mmHg 86%
    07:00 -2°C° 0 mm 2 m/S 727 mmHg 85%
    08:00 -2°C° 0 mm 2 m/S 726 mmHg 86%
    09:00 -1°C° 0 mm 2 m/S 726 mmHg 86%
    10:00 +1°C° 0 mm 2 m/S 726 mmHg 87%
    11:00 0°C° 0 mm 3 m/S 725 mmHg 86%
    12:00 0°C° 0 mm 3 m/S 725 mmHg 84%
    13:00 0°C° 0 mm 4 m/S 725 mmHg 82%
    14:00 -1°C° 0 mm 4 m/S 724 mmHg 82%
    15:00 -1°C° 0 mm 4 m/S 724 mmHg 81%
    16:00 -2°C° 0 mm 4 m/S 724 mmHg 81%
    17:00 -2°C° 0 mm 4 m/S 724 mmHg 85%
    18:00 -3°C° 0 mm 4 m/S 725 mmHg 88%
    19:00 -4°C° 0 mm 4 m/S 725 mmHg 92%
    20:00 -4°C° 0 mm 4 m/S 725 mmHg 92%
    21:00 -4°C° 0 mm 4 m/S 726 mmHg 92%
    22:00 -4°C° 0 mm 4 m/S 726 mmHg 92%
    23:00 -4°C° 0 mm 4 m/S 726 mmHg 93%

    1 März, Sonntag

    Zeit Temperatur Niederschläge Wind Luftdruck Luftfeuchtigkeit
    00:00 -4°C° 0 mm 3 m/S 727 mmHg 93%
    01:00 -4°C° 0 mm 3 m/S 727 mmHg 93%
    02:00 -5°C° 0 mm 3 m/S 727 mmHg 93%
    03:00 -6°C° 0 mm 3 m/S 728 mmHg 94%
    04:00 -7°C° 0 mm 3 m/S 728 mmHg 94%
    05:00 -7°C° 0 mm 3 m/S 728 mmHg 95%
    06:00 -8°C° 0 mm 3 m/S 729 mmHg 95%
    07:00 -8°C° 0 mm 2 m/S 729 mmHg 95%
    08:00 -8°C° 0 mm 3 m/S 729 mmHg 94%
    09:00 -7°C° 0 mm 3 m/S 730 mmHg 92%
    10:00 -6°C° 0 mm 3 m/S 730 mmHg 90%
    11:00 -5°C° 0 mm 3 m/S 730 mmHg 89%
    12:00 -4°C° 0 mm 3 m/S 731 mmHg 88%
    13:00 -4°C° 0 mm 3 m/S 731 mmHg 86%
    14:00 -4°C° 0 mm 3 m/S 731 mmHg 86%
    15:00 -4°C° 0 mm 3 m/S 731 mmHg 86%
    16:00 -4°C° 0 mm 3 m/S 732 mmHg 86%
    17:00 -4°C° 0 mm 3 m/S 732 mmHg 88%
    18:00 -4°C° 0 mm 2 m/S 732 mmHg 90%
    19:00 -5°C° 0 mm 2 m/S 733 mmHg 92%
    20:00 -6°C° 0 mm 2 m/S 733 mmHg 92%
    21:00 -7°C° 0 mm 2 m/S 733 mmHg 92%
    22:00 -8°C° 0 mm 2 m/S 734 mmHg 93%
    23:00 -7°C° 0 mm 1 m/S 734 mmHg 94%

    2 März, Montag

    Zeit Temperatur Niederschläge Wind Luftdruck Luftfeuchtigkeit
    00:00 -8°C° 0 mm 1 m/S 734 mmHg 95%
    01:00 -9°C° 0 mm 1 m/S 735 mmHg 95%
    02:00 -10°C° 0 mm 1 m/S 735 mmHg 95%
    03:00 -10°C° 0 mm 1 m/S 735 mmHg 95%
    04:00 -11°C° 0 mm 1 m/S 736 mmHg 95%
    05:00 -11°C° 0 mm 1 m/S 736 mmHg 95%
    06:00 -11°C° 0 mm 1 m/S 736 mmHg 94%
    07:00 -12°C° 0 mm 1 m/S 736 mmHg 94%
    08:00 -10°C° 0 mm 1 m/S 736 mmHg 90%
    09:00 -8°C° 0 mm 1 m/S 737 mmHg 87%
    10:00 -5°C° 0 mm 0 m/S 737 mmHg 84%
    11:00 -4°C° 0 mm 0 m/S 737 mmHg 82%
    12:00 -3°C° 0 mm 0 m/S 737 mmHg 81%
    13:00 -2°C° 0 mm 0 m/S 737 mmHg 79%
    14:00 -2°C° 0 mm 0 m/S 737 mmHg 80%
    15:00 -2°C° 0 mm 0 m/S 737 mmHg 81%
    16:00 -1°C° 0 mm 1 m/S 736 mmHg 82%
    17:00 -4°C° 0 mm 0 m/S 736 mmHg 84%
    18:00 -6°C° 0 mm 0 m/S 736 mmHg 86%
    19:00 -8°C° 0 mm 0 m/S 736 mmHg 88%
    20:00 -9°C° 0 mm 0 m/S 736 mmHg 88%
    21:00 -9°C° 0 mm 0 m/S 736 mmHg 88%
    22:00 -10°C° 0 mm 0 m/S 736 mmHg 88%
    23:00 -10°C° 0 mm 0 m/S 736 mmHg 88%

    3 März, Dienstag

    Zeit Temperatur Niederschläge Wind Luftdruck Luftfeuchtigkeit
    00:00 -10°C° 0 mm 0 m/S 736 mmHg 87%
    01:00 -11°C° 0 mm 0 m/S 735 mmHg 87%
    02:00 -11°C° 0 mm 0 m/S 735 mmHg 87%
    03:00 -11°C° 0 mm 0 m/S 735 mmHg 87%
    04:00 -11°C° 0 mm 0 m/S 735 mmHg 87%
    05:00 -11°C° 0 mm 0 m/S 735 mmHg 87%
    06:00 -10°C° 0 mm 0 m/S 736 mmHg 88%
    07:00 -10°C° 0 mm 0 m/S 736 mmHg 88%
    08:00 -9°C° 0 mm 0 m/S 736 mmHg 86%
    09:00 -7°C° 0 mm 0 m/S 736 mmHg 85%
    10:00 -5°C° 0 mm 0 m/S 736 mmHg 84%
    11:00 -3°C° 0 mm 1 m/S 735 mmHg 83%
    12:00 -2°C° 0 mm 1 m/S 735 mmHg 81%
    13:00 -1°C° 0 mm 1 m/S 735 mmHg 80%
    14:00 -1°C° 0 mm 1 m/S 735 mmHg 82%
    15:00 -3°C° 0 mm 2 m/S 735 mmHg 85%
    16:00 -3°C° 0 mm 2 m/S 735 mmHg 87%
    17:00 -5°C° 0 mm 2 m/S 735 mmHg 90%
    18:00 -7°C° 0 mm 2 m/S 735 mmHg 93%
    19:00 -9°C° 0 mm 2 m/S 735 mmHg 95%
    20:00 -8°C° 0 mm 1 m/S 735 mmHg 95%
    21:00 -9°C° 0 mm 1 m/S 735 mmHg 95%
    22:00 -10°C° 0 mm 1 m/S 735 mmHg 95%
    23:00 -10°C° 0 mm 1 m/S 735 mmHg 95%
    Mehr zeigen